SCP
0 -0 1 1 1 1 1 0 0 0 0 0 0 0 0 0 0 0 0 0 0 0 0 0 -0 -0 0 0 0 0 0 0
1 0 1 1 1 1 1 1 1 1 0 0 0 0 0 0 0 0 0 0 0 0 0 0 0 -0 0 0 0 0 0 -0
0 1 1 1 1 1 1 1 1 1 1 0 0 0 0 0 0 0 0 0 0 0 0 -0 -0 -0 0 0 -0 -0 0 0
0 0 2 1 1 2 1 1 1 1 1 1 0 0 0 0 0 0 0 0 0 0 0 0 -0 0 0 0 -0 0 0 -0
0 1 1 1 1 2 2 2 1 2 1 1 1 0 0 0 0 0 0 0 0 0 0 0 0 0 0 0 0 0 0 0
0 0 0 1 1 1 1 1 2 2 2 2 1 1 1 0 1 0 0 0 0 0 0 0 0 -0 0 0 0 0 0 0
0 0 0 0 1 1 2 1 3 2 2 2 2 1 1 0 0 1 0 0 0 0 0 0 0 0 0 0 0 0 0 0
0 0 0 0 0 0 1 2 2 2 3 4 2 2 1 1 0 1 0 0 0 1 0 0 0 0 0 0 0 0 0 0
0 0 0 0 0 0 0 2 2 2 3 3 3 2 1 1 1 1 0 0 0 1 1 1 0 0 0 0 0 0 0 0
0 0 0 0 0 0 0 0 2 3 3 3 3 3 1 2 1 1 0 0 1 1 1 1 0 0 0 0 0 0 0 0
-0 -0 -0 0 0 0 0 0 0 2 3 3 3 3 2 2 2 1 1 1 1 1 1 1 0 0 0 0 0 0 0 0
-0 -0 -0 -0 -0 0 0 0 0 0 3 3 3 4 3 3 2 2 1 1 1 1 1 1 0 0 0 0 0 0 0 0
0 0 0 0 0 -0 0 0 0 0 3 2 4 4 3 5 4 2 2 1 1 2 1 1 1 0 0 0 0 0 0 0
0 0 0 0 0 0 0 0 0 0 0 2 1 5 4 5 5 3 2 2 2 2 1 1 1 0 0 0 0 0 0 0
0 0 0 0 0 0 0 0 0 0 0 3 1 2 6 4 5 5 3 2 2 2 2 1 1 1 0 0 0 0 0 0
0 0 0 0 0 0 0 0 0 0 0 0 3 1 5 4 5 5 4 3 2 3 2 1 1 1 1 0 0 0 0 0
0 0 0 0 0 0 0 0 0 0 0 0 1 2 1 6 6 4 6 4 3 2 2 2 1 2 1 1 0 0 0 0
0 0 0 0 0 0 0 0 0 0 0 0 2 2 3 1 4 5 7 5 3 3 2 2 2 2 2 1 1 0 0 0
-0 0 0 0 0 0 0 0 0 0 0 0 0 3 2 3 2 5 7 5 3 3 2 2 2 2 1 1 1 0 1 0
0 0 0 0 0 0 0 0 0 0 0 0 0 2 2 1 1 3 6 4 3 3 3 2 2 2 2 1 1 1 1 0
Wind_Speed_500mb
20 24 19 26 24 24 22 21 20 20 19 21 25 27 26 25 24 21 20 20 21 18 18 17 17 17 19 21 21 21 16 21
10 22 17 26 27 27 26 26 25 24 25 26 27 29 29 29 27 26 24 24 22 20 20 19 20 21 21 23 13 24 14 23
12 10 21 22 25 31 31 30 30 30 31 31 32 32 32 33 30 29 28 27 25 23 22 22 23 23 24 25 19 25 20 28
15 13 16 25 17 28 31 36 36 36 36 36 35 34 29 29 27 32 30 31 29 27 25 25 27 28 28 28 27 28 19 28
26 19 25 26 24 30 37 34 39 44 43 42 39 37 28 29 32 35 33 34 34 33 32 33 34 30 30 29 26 18 20 26
26 24 22 27 33 32 41 33 40 43 48 48 42 41 43 38 36 32 36 41 36 31 32 34 37 30 24 27 33 23 12 15
39 35 32 27 35 45 40 42 46 47 40 47 53 47 48 44 40 40 27 26 21 34 23 29 36 34 33 35 34 30 23 22
41 38 40 44 48 40 50 44 57 61 59 61 54 56 52 51 48 44 34 36 28 35 31 33 35 39 37 29 29 27 25 20
48 44 50 50 43 53 43 62 58 65 70 74 70 62 55 46 45 50 48 41 34 41 37 41 38 42 43 37 33 31 26 26
53 57 64 69 64 59 66 47 67 73 77 78 76 75 65 60 59 59 56 49 49 45 44 43 39 42 38 39 35 31 33 33
76 83 85 69 72 63 66 82 61 75 80 85 88 80 78 71 73 64 59 55 60 60 52 53 46 43 35 32 32 33 34 37
82 84 90 83 81 75 58 77 93 71 77 90 90 92 83 85 77 72 62 61 64 59 58 62 54 50 36 44 44 33 29 32
85 87 86 83 89 79 71 51 85 94 83 83 94 98 92 93 91 81 72 75 71 67 59 62 59 56 44 43 41 37 36 35
87 89 82 89 88 81 82 79 55 90 92 93 93 106 104 98 105 96 87 84 78 73 67 72 61 56 59 48 27 42 43 43
94 91 91 87 83 85 77 91 78 75 90 93 109 101 117 107 109 108 96 92 89 83 77 72 71 67 69 44 19 21 33 50
92 90 85 83 80 82 83 80 97 67 95 102 102 129 140 134 115 116 104 103 97 90 83 72 73 74 72 67 33 16 23 17
92 88 86 83 81 80 82 85 100 95 80 98 110 115 125 111 114 115 108 110 106 97 93 84 72 76 78 73 64 46 28 19
90 89 90 82 75 72 77 80 85 102 80 84 105 127 101 86 108 108 108 111 105 104 99 89 80 78 74 72 73 65 55 43
92 91 94 79 72 67 67 69 76 105 93 93 93 111 123 109 104 108 109 116 113 106 102 93 86 85 82 74 63 72 63 60
92 91 91 75 69 70 63 53 59 82 88 98 112 90 112 122 112 100 112 103 103 103 105 98 89 88 79 69 63 62 57 58
Wind_Direction_500mb
296 290 247 227 232 232 232 233 231 229 226 225 225 225 232 232 233 235 233 226 223 222 226 218 209 205 201 197 198 179 221 226
278 294 283 235 240 239 239 237 232 230 223 223 223 229 229 235 238 235 229 225 225 226 232 225 214 208 204 208 207 178 186 158
329 253 287 284 250 245 241 241 240 233 228 218 221 224 231 235 239 237 230 229 227 225 231 227 220 211 209 214 226 204 184 186
334 282 249 268 259 259 249 239 240 239 232 225 223 221 233 243 239 235 233 230 227 224 227 231 223 217 212 212 216 217 219 177
335 332 282 260 265 256 262 246 235 238 235 231 221 220 202 235 228 235 238 234 226 224 228 229 218 217 217 210 192 225 225 151
326 319 339 283 263 259 276 255 240 238 237 231 221 215 206 215 226 240 250 232 226 234 236 223 209 196 210 216 195 198 224 229
335 317 305 298 296 276 256 262 242 239 234 240 225 217 216 206 212 231 255 224 225 219 234 222 206 200 196 215 207 197 193 189
334 334 335 311 298 296 269 254 250 254 219 231 231 219 217 206 213 220 227 215 221 214 218 226 213 203 199 201 211 215 214 201
328 328 309 300 303 287 282 262 253 253 253 232 232 226 214 211 216 216 216 207 221 209 218 222 221 208 203 207 211 213 217 213
321 306 303 299 289 289 285 266 256 249 250 251 236 229 217 206 218 217 214 208 207 207 211 216 212 207 205 207 211 220 216 213
314 311 305 296 286 278 280 266 258 247 243 247 247 235 220 211 212 216 212 208 212 214 208 214 212 198 203 206 218 223 222 214
313 306 305 304 295 273 272 279 258 252 240 238 242 240 225 215 218 212 214 203 215 210 207 204 214 195 197 203 213 204 216 220
322 318 308 300 291 290 262 284 270 264 254 244 229 240 231 220 217 213 212 203 208 215 209 201 201 191 198 205 209 221 217 214
321 317 307 303 296 290 270 258 261 262 255 251 240 229 235 222 218 215 211 209 201 215 213 198 206 197 205 206 206 220 222 214
320 319 311 307 301 292 280 260 264 260 251 248 246 237 229 226 218 213 212 212 205 209 214 204 195 198 213 202 180 207 227 235
324 322 320 314 307 297 288 277 262 250 245 241 244 242 227 214 216 213 209 214 210 209 216 210 200 199 207 219 211 193 178 186
330 328 329 318 309 298 289 282 259 250 260 242 242 239 243 215 216 211 204 213 213 210 213 214 204 203 209 212 212 205 214 196
337 338 331 323 312 300 284 273 267 250 254 240 236 239 236 226 214 212 201 211 208 213 217 216 209 206 217 217 214 211 221 213
342 343 336 327 320 312 292 275 268 246 246 241 245 237 240 233 224 210 200 212 212 215 218 216 211 211 219 222 222 220 221 219
346 349 339 335 332 321 307 285 278 241 242 236 237 236 232 229 235 206 202 212 214 215 221 220 215 214 221 222 219 220 217 222
Wind_Speed_850mb
20 24 19 26 24 24 22 21 20 20 19 21 25 27 26 25 24 21 20 20 21 18 18 17 17 17 19 21 21 21 16 21
10 22 17 26 27 27 26 26 25 24 25 26 27 29 29 29 27 26 24 24 22 20 20 19 20 21 21 23 13 24 14 23
12 10 21 22 25 31 31 30 30 30 31 31 32 32 32 33 30 29 28 27 25 23 22 22 23 23 24 25 19 25 20 28
15 13 16 25 17 28 31 36 36 36 36 36 35 34 29 29 27 32 30 31 29 27 25 25 27 28 28 28 27 28 19 28
26 19 25 26 24 30 37 34 39 44 43 42 39 37 28 29 32 35 33 34 34 33 32 33 34 30 30 29 26 18 20 26
26 24 22 27 33 32 41 33 40 43 48 48 42 41 43 38 36 32 36 41 36 31 32 34 37 30 24 27 33 23 12 15
39 35 32 27 35 45 40 42 46 47 40 47 53 47 48 44 40 40 27 26 21 34 23 29 36 34 33 35 34 30 23 22
41 38 40 44 48 40 50 44 57 61 59 61 54 56 52 51 48 44 34 36 28 35 31 33 35 39 37 29 29 27 25 20
48 44 50 50 43 53 43 62 58 65 70 74 70 62 55 46 45 50 48 41 34 41 37 41 38 42 43 37 33 31 26 26
53 57 64 69 64 59 66 47 67 73 77 78 76 75 65 60 59 59 56 49 49 45 44 43 39 42 38 39 35 31 33 33
76 83 85 69 72 63 66 82 61 75 80 85 88 80 78 71 73 64 59 55 60 60 52 53 46 43 35 32 32 33 34 37
82 84 90 83 81 75 58 77 93 71 77 90 90 92 83 85 77 72 62 61 64 59 58 62 54 50 36 44 44 33 29 32
85 87 86 83 89 79 71 51 85 94 83 83 94 98 92 93 91 81 72 75 71 67 59 62 59 56 44 43 41 37 36 35
87 89 82 89 88 81 82 79 55 90 92 93 93 106 104 98 105 96 87 84 78 73 67 72 61 56 59 48 27 42 43 43
94 91 91 87 83 85 77 91 78 75 90 93 109 101 117 107 109 108 96 92 89 83 77 72 71 67 69 44 19 21 33 50
92 90 85 83 80 82 83 80 97 67 95 102 102 129 140 134 115 116 104 103 97 90 83 72 73 74 72 67 33 16 23 17
92 88 86 83 81 80 82 85 100 95 80 98 110 115 125 111 114 115 108 110 106 97 93 84 72 76 78 73 64 46 28 19
90 89 90 82 75 72 77 80 85 102 80 84 105 127 101 86 108 108 108 111 105 104 99 89 80 78 74 72 73 65 55 43
92 91 94 79 72 67 67 69 76 105 93 93 93 111 123 109 104 108 109 116 113 106 102 93 86 85 82 74 63 72 63 60
92 91 91 75 69 70 63 53 59 82 88 98 112 90 112 122 112 100 112 103 103 103 105 98 89 88 79 69 63 62 57 58
Wind_Direction_850mb
296 290 247 227 232 232 232 233 231 229 226 225 225 225 232 232 233 235 233 226 223 222 226 218 209 205 201 197 198 179 221 226
278 294 283 235 240 239 239 237 232 230 223 223 223 229 229 235 238 235 229 225 225 226 232 225 214 208 204 208 207 178 186 158
329 253 287 284 250 245 241 241 240 233 228 218 221 224 231 235 239 237 230 229 227 225 231 227 220 211 209 214 226 204 184 186
334 282 249 268 259 259 249 239 240 239 232 225 223 221 233 243 239 235 233 230 227 224 227 231 223 217 212 212 216 217 219 177
335 332 282 260 265 256 262 246 235 238 235 231 221 220 202 235 228 235 238 234 226 224 228 229 218 217 217 210 192 225 225 151
326 319 339 283 263 259 276 255 240 238 237 231 221 215 206 215 226 240 250 232 226 234 236 223 209 196 210 216 195 198 224 229
335 317 305 298 296 276 256 262 242 239 234 240 225 217 216 206 212 231 255 224 225 219 234 222 206 200 196 215 207 197 193 189
334 334 335 311 298 296 269 254 250 254 219 231 231 219 217 206 213 220 227 215 221 214 218 226 213 203 199 201 211 215 214 201
328 328 309 300 303 287 282 262 253 253 253 232 232 226 214 211 216 216 216 207 221 209 218 222 221 208 203 207 211 213 217 213
321 306 303 299 289 289 285 266 256 249 250 251 236 229 217 206 218 217 214 208 207 207 211 216 212 207 205 207 211 220 216 213
314 311 305 296 286 278 280 266 258 247 243 247 247 235 220 211 212 216 212 208 212 214 208 214 212 198 203 206 218 223 222 214
313 306 305 304 295 273 272 279 258 252 240 238 242 240 225 215 218 212 214 203 215 210 207 204 214 195 197 203 213 204 216 220
322 318 308 300 291 290 262 284 270 264 254 244 229 240 231 220 217 213 212 203 208 215 209 201 201 191 198 205 209 221 217 214
321 317 307 303 296 290 270 258 261 262 255 251 240 229 235 222 218 215 211 209 201 215 213 198 206 197 205 206 206 220 222 214
320 319 311 307 301 292 280 260 264 260 251 248 246 237 229 226 218 213 212 212 205 209 214 204 195 198 213 202 180 207 227 235
324 322 320 314 307 297 288 277 262 250 245 241 244 242 227 214 216 213 209 214 210 209 216 210 200 199 207 219 211 193 178 186
330 328 329 318 309 298 289 282 259 250 260 242 242 239 243 215 216 211 204 213 213 210 213 214 204 203 209 212 212 205 214 196
337 338 331 323 312 300 284 273 267 250 254 240 236 239 236 226 214 212 201 211 208 213 217 216 209 206 217 217 214 211 221 213
342 343 336 327 320 312 292 275 268 246 246 241 245 237 240 233 224 210 200 212 212 215 218 216 211 211 219 222 222 220 221 219
346 349 339 335 332 321 307 285 278 241 242 236 237 236 232 229 235 206 202 212 214 215 221 220 215 214 221 222 219 220 217 222